Time,TemperatureF,DewpointF,PressureIn,WindDirection,WindDirectionDegrees,WindSpeedMPH,WindSpeedGustMPH,Humidity,HourlyPrecipIn,Conditions,Clouds,dailyrainin,SolarRadiationWatts/m^2,SoftwareType,DateUTC
2013-08-23 00:02:00,72.8,68.4,30.00,ESE,123,3.0,5.0,86,0.00,,,0.00,0,Wunderground v.1.15,2013-08-23 05:02:00,
2013-08-23 00:07:00,72.8,68.4,30.00,ESE,121,3.0,5.0,86,0.00,,,0.00,0,Wunderground v.1.15,2013-08-23 05:07:00,
2013-08-23 00:13:00,72.8,68.4,30.00,ESE,119,3.0,3.0,86,0.00,,,0.00,0,Wunderground v.1.15,2013-08-23 05:13:00,
2013-08-23 00:19:00,72.9,68.5,30.00,SE,128,3.0,4.0,86,0.00,,,0.00,0,Wunderground v.1.15,2013-08-23 05:19:00,
2013-08-23 00:25:00,72.8,68.4,30.00,ENE,78,4.0,6.0,86,0.00,,,0.00,0,Wunderground v.1.15,2013-08-23 05:25:00,
2013-08-23 00:31:00,72.7,68.3,30.00,ESE,123,3.0,4.0,86,0.00,,,0.00,0,Wunderground v.1.15,2013-08-23 05:31:00,
2013-08-23 00:36:00,72.7,68.3,30.00,ESE,120,4.0,4.0,86,0.00,,,0.00,0,Wunderground v.1.15,2013-08-23 05:36:00,
2013-08-23 00:41:00,72.6,68.2,29.99,SE,126,4.0,4.0,86,0.00,,,0.00,0,Wunderground v.1.15,2013-08-23 05:41:00,
2013-08-23 00:46:00,72.5,68.4,30.00,ESE,123,4.0,4.0,87,0.00,,,0.00,0,Wunderground v.1.15,2013-08-23 05:46:00,
2013-08-23 00:51:00,72.3,68.2,30.00,SE,130,4.0,4.0,87,0.00,,,0.00,0,Wunderground v.1.15,2013-08-23 05:51:00,
2013-08-23 00:57:00,72.3,68.2,30.00,ESE,119,4.0,6.0,87,0.00,,,0.00,0,Wunderground v.1.15,2013-08-23 05:57:00,
2013-08-23 01:02:00,72.3,68.2,30.00,SE,128,4.0,5.0,87,0.00,,,0.00,0,Wunderground v.1.15,2013-08-23 06:02:00,
2013-08-23 01:07:00,72.1,68.3,30.00,SE,126,3.0,5.0,88,0.00,,,0.00,0,Wunderground v.1.15,2013-08-23 06:07:00,
2013-08-23 01:12:00,72.1,68.3,30.00,ESE,117,3.0,4.0,88,0.00,,,0.00,0,Wunderground v.1.15,2013-08-23 06:12:00,
2013-08-23 01:17:00,72.1,68.3,30.00,ESE,123,3.0,4.0,88,0.00,,,0.00,0,Wunderground v.1.15,2013-08-23 06:17:00,
2013-08-23 01:23:00,72.0,68.2,30.00,SE,136,3.0,3.0,88,0.00,,,0.00,0,Wunderground v.1.15,2013-08-23 06:23:00,
2013-08-23 01:28:00,71.9,68.2,30.00,ESE,120,3.0,4.0,88,0.00,,,0.00,0,Wunderground v.1.15,2013-08-23 06:28:00,
2013-08-23 01:33:00,72.0,68.2,30.00,ESE,119,4.0,4.0,88,0.00,,,0.00,0,Wunderground v.1.15,2013-08-23 06:33:00,
2013-08-23 01:38:00,72.0,68.2,30.00,SE,127,4.0,4.0,88,0.00,,,0.00,0,Wunderground v.1.15,2013-08-23 06:38:00,
2013-08-23 01:43:00,71.9,68.2,30.00,ESE,119,3.0,4.0,88,0.00,,,0.00,0,Wunderground v.1.15,2013-08-23 06:43:00,
2013-08-23 01:49:00,71.8,68.4,30.00,SE,124,3.0,4.0,89,0.00,,,0.00,0,Wunderground v.1.15,2013-08-23 06:49:00,
2013-08-23 01:55:00,71.9,68.5,30.00,ESE,117,3.0,4.0,89,0.00,,,0.00,0,Wunderground v.1.15,2013-08-23 06:55:00,
2013-08-23 02:01:00,71.8,68.4,29.99,ESE,116,3.0,3.0,89,0.00,,,0.00,0,Wunderground v.1.15,2013-08-23 07:01:00,
2013-08-23 02:06:00,71.7,68.3,29.99,ESE,120,3.0,3.0,89,0.00,,,0.00,0,Wunderground v.1.15,2013-08-23 07:06:00,
2013-08-23 02:11:00,71.7,68.3,29.99,SE,124,3.0,3.0,89,0.00,,,0.00,0,Wunderground v.1.15,2013-08-23 07:11:00,
2013-08-23 02:16:00,71.7,68.3,29.99,SE,124,1.0,3.0,89,0.00,,,0.00,0,Wunderground v.1.15,2013-08-23 07:16:00,
2013-08-23 02:22:00,71.6,68.2,30.00,SE,124,1.0,3.0,89,0.00,,,0.00,0,Wunderground v.1.15,2013-08-23 07:22:00,
2013-08-23 02:27:00,71.5,68.1,30.00,ESE,118,3.0,3.0,89,0.00,,,0.00,0,Wunderground v.1.15,2013-08-23 07:27:00,
2013-08-23 02:32:00,71.4,68.3,30.00,SE,124,3.0,4.0,90,0.00,,,0.00,0,Wunderground v.1.15,2013-08-23 07:32:00,
2013-08-23 02:37:00,71.4,68.3,30.00,SE,138,2.0,4.0,90,0.00,,,0.00,0,Wunderground v.1.15,2013-08-23 07:37:00,
2013-08-23 02:42:00,71.7,68.3,30.00,SE,131,3.0,4.0,89,0.00,,,0.00,0,Wunderground v.1.15,2013-08-23 07:42:00,
2013-08-23 02:48:00,71.8,68.4,30.00,SE,140,3.0,4.0,89,0.00,,,0.00,0,Wunderground v.1.15,2013-08-23 07:48:00,
2013-08-23 02:54:00,71.7,68.3,30.00,SE,126,3.0,3.0,89,0.00,,,0.00,0,Wunderground v.1.15,2013-08-23 07:54:00,
2013-08-23 03:00:00,71.5,68.1,30.00,ESE,115,3.0,3.0,89,0.00,,,0.00,0,Wunderground v.1.15,2013-08-23 08:00:00,
2013-08-23 03:05:00,71.5,68.1,30.00,ESE,119,3.0,4.0,89,0.00,,,0.00,0,Wunderground v.1.15,2013-08-23 08:05:00,
2013-08-23 03:10:00,71.5,68.4,30.00,ESE,116,3.0,4.0,90,0.00,,,0.00,0,Wunderground v.1.15,2013-08-23 08:10:00,
2013-08-23 03:15:00,71.4,68.3,29.99,ESE,106,3.0,6.0,90,0.00,,,0.00,0,Wunderground v.1.15,2013-08-23 08:15:00,
2013-08-23 03:20:00,71.4,68.3,29.99,SE,124,4.0,4.0,90,0.00,,,0.00,0,Wunderground v.1.15,2013-08-23 08:20:00,
2013-08-23 03:25:00,71.3,68.2,29.99,SSE,148,5.0,7.0,90,0.00,,,0.00,0,Wunderground v.1.15,2013-08-23 08:25:00,
2013-08-23 03:31:00,71.2,68.1,29.99,ESE,118,4.0,6.0,90,0.00,,,0.00,0,Wunderground v.1.15,2013-08-23 08:31:00,
2013-08-23 03:37:00,71.2,68.1,29.99,ESE,123,4.0,7.0,90,0.00,,,0.00,0,Wunderground v.1.15,2013-08-23 08:37:00,
2013-08-23 03:43:00,71.1,68.0,29.99,SE,134,4.0,5.0,90,0.00,,,0.00,0,Wunderground v.1.15,2013-08-23 08:43:00,
2013-08-23 03:48:00,71.0,67.9,29.99,ESE,119,4.0,5.0,90,0.00,,,0.00,0,Wunderground v.1.15,2013-08-23 08:48:00,
2013-08-23 03:53:00,70.9,68.1,29.99,SSE,150,4.0,7.0,91,0.00,,,0.00,0,Wunderground v.1.15,2013-08-23 08:53:00,
2013-08-23 03:58:00,70.8,68.0,29.99,SSE,149,4.0,7.0,91,0.00,,,0.00,0,Wunderground v.1.15,2013-08-23 08:58:00,
2013-08-23 04:03:00,70.8,68.0,29.99,SE,138,4.0,4.0,91,0.00,,,0.00,0,Wunderground v.1.15,2013-08-23 09:03:00,
2013-08-23 04:09:00,70.7,67.9,29.99,SE,144,4.0,4.0,91,0.00,,,0.00,0,Wunderground v.1.15,2013-08-23 09:09:00,
2013-08-23 04:15:00,70.5,67.7,30.00,SE,146,3.0,4.0,91,0.00,,,0.00,0,Wunderground v.1.15,2013-08-23 09:15:00,
2013-08-23 04:21:00,70.4,67.6,29.99,ESE,117,3.0,4.0,91,0.00,,,0.00,0,Wunderground v.1.15,2013-08-23 09:21:00,
2013-08-23 04:26:00,70.3,67.9,29.99,SE,126,3.0,4.0,92,0.00,,,0.00,0,Wunderground v.1.15,2013-08-23 09:26:00,
2013-08-23 04:31:00,70.1,67.7,29.99,SE,138,3.0,3.0,92,0.00,,,0.00,0,Wunderground v.1.15,2013-08-23 09:31:00,
2013-08-23 04:37:00,70.0,67.9,29.99,SE,124,3.0,4.0,93,0.00,,,0.00,0,Wunderground v.1.15,2013-08-23 09:37:00,
2013-08-23 04:42:00,70.0,67.9,29.99,SE,125,3.0,4.0,93,0.00,,,0.00,0,Wunderground v.1.15,2013-08-23 09:42:00,
2013-08-23 04:47:00,69.9,67.8,29.99,SE,136,3.0,4.0,93,0.00,,,0.00,0,Wunderground v.1.15,2013-08-23 09:47:00,
2013-08-23 04:52:00,69.9,67.8,29.99,SE,133,3.0,3.0,93,0.00,,,0.00,0,Wunderground v.1.15,2013-08-23 09:52:00,
2013-08-23 04:58:00,69.8,67.7,29.99,SE,124,2.0,3.0,93,0.00,,,0.00,0,Wunderground v.1.15,2013-08-23 09:58:00,
2013-08-23 05:03:00,69.7,67.6,29.99,SE,130,2.0,3.0,93,0.00,,,0.00,0,Wunderground v.1.15,2013-08-23 10:03:00,
2013-08-23 05:09:00,69.7,67.6,29.99,SE,127,3.0,4.0,93,0.00,,,0.00,0,Wunderground v.1.15,2013-08-23 10:09:00,
2013-08-23 05:14:00,69.7,67.6,29.99,SE,134,3.0,4.0,93,0.00,,,0.00,0,Wunderground v.1.15,2013-08-23 10:14:00,
2013-08-23 05:20:00,69.7,67.9,29.99,SE,132,3.0,3.0,94,0.00,,,0.00,0,Wunderground v.1.15,2013-08-23 10:20:00,
2013-08-23 05:25:00,69.6,67.8,29.99,ESE,119,3.0,4.0,94,0.00,,,0.00,0,Wunderground v.1.15,2013-08-23 10:25:00,
2013-08-23 05:31:00,69.5,67.7,29.99,ESE,121,3.0,3.0,94,0.00,,,0.00,0,Wunderground v.1.15,2013-08-23 10:31:00,
2013-08-23 05:36:00,69.4,67.6,29.99,SE,134,3.0,3.0,94,0.00,,,0.00,0,Wunderground v.1.15,2013-08-23 10:36:00,
2013-08-23 05:42:00,69.3,67.5,29.99,SE,127,2.0,2.0,94,0.00,,,0.00,0,Wunderground v.1.15,2013-08-23 10:42:00,
2013-08-23 05:47:00,69.2,67.4,29.99,ESE,121,2.0,3.0,94,0.00,,,0.00,0,Wunderground v.1.15,2013-08-23 10:47:00,
2013-08-23 05:52:00,69.1,67.3,29.99,SE,126,3.0,4.0,94,0.00,,,0.00,0,Wunderground v.1.15,2013-08-23 10:52:00,
2013-08-23 05:57:00,69.2,67.4,29.99,ESE,117,3.0,4.0,94,0.00,,,0.00,0,Wunderground v.1.15,2013-08-23 10:57:00,
2013-08-23 06:03:00,69.3,67.5,29.99,SE,128,3.0,4.0,94,0.00,,,0.00,0,Wunderground v.1.15,2013-08-23 11:03:00,
2013-08-23 06:08:00,69.4,67.6,29.99,ESE,122,3.0,4.0,94,0.00,,,0.00,0,Wunderground v.1.15,2013-08-23 11:08:00,
2013-08-23 06:13:00,69.4,67.9,29.99,ESE,108,3.0,4.0,95,0.00,,,0.00,0,Wunderground v.1.15,2013-08-23 11:13:00,
2013-08-23 06:18:00,69.4,67.6,29.99,ESE,120,3.0,4.0,94,0.00,,,0.00,0,Wunderground v.1.15,2013-08-23 11:18:00,
2013-08-23 06:23:00,69.5,68.0,29.99,ESE,109,3.0,3.0,95,0.00,,,0.00,0,Wunderground v.1.15,2013-08-23 11:23:00,
2013-08-23 06:29:00,69.5,67.7,29.99,ESE,115,3.0,3.0,94,0.00,,,0.00,0,Wunderground v.1.15,2013-08-23 11:29:00,
2013-08-23 06:35:00,69.6,67.8,29.99,ESE,119,3.0,4.0,94,0.00,,,0.00,0,Wunderground v.1.15,2013-08-23 11:35:00,
2013-08-23 06:40:00,69.7,67.9,29.99,SE,144,3.0,3.0,94,0.00,,,0.00,0,Wunderground v.1.15,2013-08-23 11:40:00,
2013-08-23 06:46:00,69.9,68.1,29.99,ESE,123,3.0,4.0,94,0.00,,,0.00,0,Wunderground v.1.15,2013-08-23 11:46:00,
2013-08-23 06:52:00,69.9,68.1,29.99,SE,136,3.0,5.0,94,0.00,,,0.00,5,Wunderground v.1.15,2013-08-23 11:52:00,
2013-08-23 06:57:00,69.9,67.8,29.99,SE,143,3.0,5.0,93,0.00,,,0.00,9,Wunderground v.1.15,2013-08-23 11:57:00,
2013-08-23 07:02:00,69.9,67.8,29.99,SE,132,4.0,5.0,93,0.00,,,0.00,16,Wunderground v.1.15,2013-08-23 12:02:00,
2013-08-23 07:07:00,69.9,67.8,29.99,SSE,148,4.0,5.0,93,0.00,,,0.00,19,Wunderground v.1.15,2013-08-23 12:07:00,
2013-08-23 07:12:00,69.9,67.8,29.99,SE,134,5.0,5.0,93,0.00,,,0.00,25,Wunderground v.1.15,2013-08-23 12:12:00,
2013-08-23 07:17:00,69.9,67.8,29.99,SE,144,5.0,7.0,93,0.00,,,0.00,33,Wunderground v.1.15,2013-08-23 12:17:00,
2013-08-23 07:23:00,69.9,67.8,29.99,SSE,148,5.0,5.0,93,0.00,,,0.00,42,Wunderground v.1.15,2013-08-23 12:23:00,
2013-08-23 07:29:00,69.9,67.8,29.99,SE,134,4.0,5.0,93,0.00,,,0.00,51,Wunderground v.1.15,2013-08-23 12:29:00,
2013-08-23 07:35:00,70.0,67.9,29.99,SE,136,4.0,6.0,93,0.00,,,0.00,69,Wunderground v.1.15,2013-08-23 12:35:00,
2013-08-23 07:41:00,70.2,68.1,29.99,SE,142,5.0,7.0,93,0.00,,,0.00,90,Wunderground v.1.15,2013-08-23 12:41:00,
2013-08-23 07:47:00,70.3,68.2,30.00,SE,145,4.0,7.0,93,0.00,,,0.00,77,Wunderground v.1.15,2013-08-23 12:47:00,
2013-08-23 07:52:00,70.5,68.4,30.00,SE,142,4.0,6.0,93,0.00,,,0.00,93,Wunderground v.1.15,2013-08-23 12:52:00,
2013-08-23 07:57:00,70.6,68.5,30.00,SE,144,4.0,7.0,93,0.00,,,0.00,97,Wunderground v.1.15,2013-08-23 12:57:00,
2013-08-23 08:02:00,70.7,68.6,30.00,SE,139,5.0,5.0,93,0.00,,,0.00,118,Wunderground v.1.15,2013-08-23 13:02:00,
2013-08-23 08:07:00,70.9,68.8,30.00,SE,128,6.0,7.0,93,0.00,,,0.00,88,Wunderground v.1.15,2013-08-23 13:07:00,
2013-08-23 08:13:00,71.1,69.0,30.00,SE,134,6.0,9.0,93,0.00,,,0.00,128,Wunderground v.1.15,2013-08-23 13:13:00,
2013-08-23 08:19:00,71.4,69.3,30.00,ESE,122,5.0,9.0,93,0.00,,,0.00,132,Wunderground v.1.15,2013-08-23 13:19:00,
2013-08-23 08:25:00,71.7,69.3,30.01,ESE,122,5.0,7.0,92,0.00,,,0.00,113,Wunderground v.1.15,2013-08-23 13:25:00,
2013-08-23 08:31:00,72.0,69.5,30.01,SSE,151,5.0,5.0,92,0.00,,,0.00,109,Wunderground v.1.15,2013-08-23 13:31:00,
2013-08-23 08:37:00,72.1,69.6,30.01,SSE,154,4.0,7.0,92,0.00,,,0.00,120,Wunderground v.1.15,2013-08-23 13:37:00,
2013-08-23 08:43:00,72.3,69.8,30.01,SE,125,4.0,7.0,92,0.00,,,0.00,113,Wunderground v.1.15,2013-08-23 13:43:00,
2013-08-23 08:48:00,72.4,69.6,30.01,SE,145,4.0,7.0,91,0.00,,,0.00,118,Wunderground v.1.15,2013-08-23 13:48:00,
2013-08-23 08:53:00,72.7,69.9,30.01,SE,139,4.0,5.0,91,0.00,,,0.00,135,Wunderground v.1.15,2013-08-23 13:53:00,
2013-08-23 08:58:00,72.9,70.4,30.01,SE,136,4.0,5.0,92,0.00,,,0.00,151,Wunderground v.1.15,2013-08-23 13:58:00,
2013-08-23 09:04:00,73.2,70.4,30.01,SE,128,4.0,5.0,91,0.00,,,0.00,190,Wunderground v.1.15,2013-08-23 14:04:00,
2013-08-23 09:09:00,73.9,71.1,30.01,SE,124,4.0,5.0,91,0.00,,,0.00,443,Wunderground v.1.15,2013-08-23 14:09:00,
2013-08-23 09:14:00,74.8,71.3,30.00,SE,136,4.0,8.0,89,0.00,,,0.00,306,Wunderground v.1.15,2013-08-23 14:14:00,
2013-08-23 09:20:00,75.5,71.4,30.00,South,180,6.0,6.0,87,0.00,,,0.00,350,Wunderground v.1.15,2013-08-23 14:20:00,
2013-08-23 09:26:00,76.2,71.7,30.00,ESE,115,6.0,8.0,86,0.00,,,0.00,241,Wunderground v.1.15,2013-08-23 14:26:00,
2013-08-23 09:32:00,75.9,71.8,30.00,SE,131,6.0,7.0,87,0.00,,,0.00,246,Wunderground v.1.15,2013-08-23 14:32:00,
2013-08-23 09:38:00,75.8,71.7,30.00,SE,140,5.0,7.0,87,0.00,,,0.00,258,Wunderground v.1.15,2013-08-23 14:38:00,
2013-08-23 09:44:00,76.1,71.9,30.00,SE,130,4.0,5.0,87,0.00,,,0.00,274,Wunderground v.1.15,2013-08-23 14:44:00,
2013-08-23 09:50:00,76.5,72.3,30.00,ESE,121,4.0,5.0,87,0.00,,,0.00,223,Wunderground v.1.15,2013-08-23 14:50:00,
2013-08-23 09:55:00,76.5,72.0,30.00,SE,124,5.0,8.0,86,0.00,,,0.00,269,Wunderground v.1.15,2013-08-23 14:55:00,
2013-08-23 10:00:00,77.0,72.1,30.00,SE,130,6.0,8.0,85,0.00,,,0.00,246,Wunderground v.1.15,2013-08-23 15:00:00,
2013-08-23 10:06:00,77.1,72.2,30.00,SE,132,6.0,8.0,85,0.00,,,0.00,216,Wunderground v.1.15,2013-08-23 15:06:00,
2013-08-23 10:11:00,77.4,72.5,30.00,ESE,123,7.0,7.0,85,0.00,,,0.00,522,Wunderground v.1.15,2013-08-23 15:11:00,
2013-08-23 10:16:00,77.9,72.7,29.99,SE,143,7.0,9.0,84,0.00,,,0.00,476,Wunderground v.1.15,2013-08-23 15:16:00,
2013-08-23 10:21:00,78.6,72.6,30.00,SSE,168,5.0,6.0,82,0.00,,,0.00,536,Wunderground v.1.15,2013-08-23 15:21:00,
2013-08-23 10:26:00,79.0,73.0,30.00,SE,145,5.0,9.0,82,0.00,,,0.00,508,Wunderground v.1.15,2013-08-23 15:26:00,
2013-08-23 10:31:00,79.4,73.4,30.00,SE,134,6.0,8.0,82,0.00,,,0.00,564,Wunderground v.1.15,2013-08-23 15:31:00,
2013-08-23 10:36:00,79.3,72.2,29.99,South,169,7.0,12.0,79,0.00,,,0.00,554,Wunderground v.1.15,2013-08-23 15:36:00,
2013-08-23 10:41:00,79.6,72.9,29.99,SSE,158,8.0,8.0,80,0.00,,,0.00,550,Wunderground v.1.15,2013-08-23 15:41:00,
2013-08-23 10:46:00,80.0,72.9,29.99,SSE,159,7.0,8.0,79,0.00,,,0.00,550,Wunderground v.1.15,2013-08-23 15:46:00,
2013-08-23 10:51:00,80.3,73.2,29.99,SE,125,6.0,7.0,79,0.00,,,0.00,592,Wunderground v.1.15,2013-08-23 15:51:00,
2013-08-23 10:56:00,80.9,73.0,29.99,SE,140,8.0,14.0,77,0.00,,,0.00,640,Wunderground v.1.15,2013-08-23 15:56:00,
2013-08-23 11:01:00,81.7,73.8,29.99,SE,146,7.0,8.0,77,0.00,,,0.00,633,Wunderground v.1.15,2013-08-23 16:01:00,
2013-08-23 11:07:00,81.9,73.2,29.99,South,188,8.0,10.0,75,0.00,,,0.00,661,Wunderground v.1.15,2013-08-23 16:07:00,
2013-08-23 11:12:00,82.4,74.5,29.99,SSE,152,7.0,8.0,77,0.00,,,0.00,670,Wunderground v.1.15,2013-08-23 16:12:00,
2013-08-23 11:17:00,83.0,73.9,29.99,South,175,6.0,9.0,74,0.00,,,0.00,717,Wunderground v.1.15,2013-08-23 16:17:00,
2013-08-23 11:22:00,83.2,73.2,29.98,ESE,123,7.0,9.0,72,0.00,,,0.00,749,Wunderground v.1.15,2013-08-23 16:22:00,
2013-08-23 11:27:00,83.6,74.4,29.98,SE,132,7.0,12.0,74,0.00,,,0.00,729,Wunderground v.1.15,2013-08-23 16:27:00,
2013-08-23 11:32:00,83.6,73.6,29.98,South,178,7.0,8.0,72,0.00,,,0.00,742,Wunderground v.1.15,2013-08-23 16:32:00,
2013-08-23 11:37:00,83.8,73.0,29.98,South,182,7.0,12.0,70,0.00,,,0.00,691,Wunderground v.1.15,2013-08-23 16:37:00,
2013-08-23 11:43:00,84.4,74.0,29.98,SE,138,8.0,9.0,71,0.00,,,0.00,756,Wunderground v.1.15,2013-08-23 16:43:00,
2013-08-23 11:49:00,84.4,74.0,29.98,SSE,167,8.0,10.0,71,0.00,,,0.00,784,Wunderground v.1.15,2013-08-23 16:49:00,
2013-08-23 11:55:00,84.5,73.2,29.98,South,186,7.0,8.0,69,0.00,,,0.00,751,Wunderground v.1.15,2013-08-23 16:55:00,
2013-08-23 12:01:00,85.2,75.1,29.97,SE,142,6.0,8.0,72,0.00,,,0.00,740,Wunderground v.1.15,2013-08-23 17:01:00,
2013-08-23 12:07:00,85.2,72.1,29.97,South,170,8.0,10.0,65,0.00,,,0.00,773,Wunderground v.1.15,2013-08-23 17:07:00,
2013-08-23 12:13:00,85.1,72.0,29.97,SSE,161,9.0,10.0,65,0.00,,,0.00,744,Wunderground v.1.15,2013-08-23 17:13:00,
2013-08-23 12:18:00,85.4,73.6,29.97,SW,223,8.0,10.0,68,0.00,,,0.00,789,Wunderground v.1.15,2013-08-23 17:18:00,
2013-08-23 12:23:00,85.4,73.6,29.97,SSE,167,8.0,10.0,68,0.00,,,0.00,788,Wunderground v.1.15,2013-08-23 17:23:00,
2013-08-23 12:28:00,85.7,72.1,29.96,SSE,150,9.0,14.0,64,0.00,,,0.00,780,Wunderground v.1.15,2013-08-23 17:28:00,
2013-08-23 12:33:00,85.9,72.8,29.96,SSE,168,10.0,12.0,65,0.00,,,0.00,807,Wunderground v.1.15,2013-08-23 17:33:00,
2013-08-23 12:39:00,85.7,71.2,29.96,SSE,147,10.0,14.0,62,0.00,,,0.00,237,Wunderground v.1.15,2013-08-23 17:39:00,
2013-08-23 12:45:00,85.8,71.3,29.96,South,175,10.0,10.0,62,0.00,,,0.00,701,Wunderground v.1.15,2013-08-23 17:45:00,
2013-08-23 12:51:00,85.9,72.3,29.96,SE,144,9.0,9.0,64,0.00,,,0.00,789,Wunderground v.1.15,2013-08-23 17:51:00,
2013-08-23 12:57:00,86.5,71.9,29.96,SE,137,9.0,12.0,62,0.00,,,0.00,879,Wunderground v.1.15,2013-08-23 17:57:00,
2013-08-23 13:02:00,86.5,72.4,29.96,South,176,8.0,10.0,63,0.00,,,0.00,798,Wunderground v.1.15,2013-08-23 18:02:00,
2013-08-23 13:07:00,86.8,72.2,29.95,South,183,8.0,12.0,62,0.00,,,0.00,745,Wunderground v.1.15,2013-08-23 18:07:00,
2013-08-23 13:12:00,87.1,72.0,29.95,SSE,147,9.0,12.0,61,0.00,,,0.00,830,Wunderground v.1.15,2013-08-23 18:12:00,
2013-08-23 13:17:00,86.6,72.5,29.95,SE,144,9.0,13.0,63,0.00,,,0.00,900,Wunderground v.1.15,2013-08-23 18:17:00,
2013-08-23 13:22:00,86.8,73.2,29.95,SE,136,10.0,16.0,64,0.00,,,0.00,823,Wunderground v.1.15,2013-08-23 18:22:00,
2013-08-23 13:27:00,87.4,72.8,29.95,SE,140,10.0,16.0,62,0.00,,,0.00,849,Wunderground v.1.15,2013-08-23 18:27:00,
2013-08-23 13:32:00,87.4,71.8,29.95,SE,138,10.0,11.0,60,0.00,,,0.00,807,Wunderground v.1.15,2013-08-23 18:32:00,
2013-08-23 13:37:00,87.6,71.5,29.94,SSE,164,10.0,12.0,59,0.00,,,0.00,831,Wunderground v.1.15,2013-08-23 18:37:00,
2013-08-23 13:43:00,87.4,70.8,29.94,SSE,167,11.0,15.0,58,0.00,,,0.00,763,Wunderground v.1.15,2013-08-23 18:43:00,
2013-08-23 13:49:00,87.9,71.8,29.94,ENE,70,10.0,15.0,59,0.00,,,0.00,865,Wunderground v.1.15,2013-08-23 18:49:00,
2013-08-23 13:54:00,87.7,72.1,29.94,SSE,148,11.0,16.0,60,0.00,,,0.00,835,Wunderground v.1.15,2013-08-23 18:54:00,
2013-08-23 14:00:00,87.9,72.3,29.94,SSE,163,11.0,12.0,60,0.00,,,0.00,788,Wunderground v.1.15,2013-08-23 19:00:00,
2013-08-23 14:05:00,87.8,71.2,29.94,SSE,168,10.0,17.0,58,0.00,,,0.00,846,Wunderground v.1.15,2013-08-23 19:05:00,
2013-08-23 14:10:00,87.6,70.5,29.94,ESE,117,11.0,14.0,57,0.00,,,0.00,793,Wunderground v.1.15,2013-08-23 19:10:00,
2013-08-23 14:15:00,87.8,70.7,29.94,SE,144,11.0,14.0,57,0.00,,,0.00,853,Wunderground v.1.15,2013-08-23 19:15:00,
2013-08-23 14:20:00,88.1,70.4,29.94,SSE,165,11.0,11.0,56,0.00,,,0.00,865,Wunderground v.1.15,2013-08-23 19:20:00,
2013-08-23 14:25:00,88.6,71.4,29.94,SE,141,10.0,13.0,57,0.00,,,0.00,803,Wunderground v.1.15,2013-08-23 19:25:00,
2013-08-23 14:31:00,87.7,71.1,29.94,SSE,160,10.0,13.0,58,0.00,,,0.00,788,Wunderground v.1.15,2013-08-23 19:31:00,
2013-08-23 14:37:00,87.5,70.4,29.94,SSE,153,10.0,18.0,57,0.00,,,0.00,786,Wunderground v.1.15,2013-08-23 19:37:00,
2013-08-23 14:42:00,88.2,71.0,29.94,South,186,12.0,12.0,57,0.00,,,0.00,759,Wunderground v.1.15,2013-08-23 19:42:00,
2013-08-23 14:47:00,88.1,70.4,29.93,South,190,12.0,21.0,56,0.00,,,0.00,712,Wunderground v.1.15,2013-08-23 19:47:00,
2013-08-23 14:53:00,88.1,71.5,29.93,ESE,123,11.0,16.0,58,0.00,,,0.00,599,Wunderground v.1.15,2013-08-23 19:53:00,
2013-08-23 14:58:00,88.0,70.3,29.94,SSE,159,11.0,16.0,56,0.00,,,0.00,668,Wunderground v.1.15,2013-08-23 19:58:00,
2013-08-23 15:04:00,87.9,70.2,29.93,SE,143,10.0,19.0,56,0.00,,,0.00,786,Wunderground v.1.15,2013-08-23 20:04:00,
2013-08-23 15:09:00,87.9,70.2,29.93,ESE,123,11.0,19.0,56,0.00,,,0.00,635,Wunderground v.1.15,2013-08-23 20:09:00,
2013-08-23 15:14:00,87.8,69.1,29.93,South,183,12.0,16.0,54,0.00,,,0.00,628,Wunderground v.1.15,2013-08-23 20:14:00,
2013-08-23 15:19:00,87.5,69.9,29.93,ESE,122,11.0,16.0,56,0.00,,,0.00,568,Wunderground v.1.15,2013-08-23 20:19:00,
2013-08-23 15:25:00,87.4,69.3,29.93,SE,143,11.0,15.0,55,0.00,,,0.00,613,Wunderground v.1.15,2013-08-23 20:25:00,
2013-08-23 15:31:00,87.6,70.0,29.93,SSE,166,11.0,13.0,56,0.00,,,0.00,548,Wunderground v.1.15,2013-08-23 20:31:00,
2013-08-23 15:37:00,87.5,69.3,29.93,SSE,163,10.0,15.0,55,0.00,,,0.00,545,Wunderground v.1.15,2013-08-23 20:37:00,
2013-08-23 15:43:00,87.2,69.1,29.94,SE,132,11.0,13.0,55,0.00,,,0.00,283,Wunderground v.1.15,2013-08-23 20:43:00,
2013-08-23 15:49:00,87.7,70.1,29.93,ESE,119,10.0,13.0,56,0.00,,,0.00,700,Wunderground v.1.15,2013-08-23 20:49:00,
2013-08-23 15:55:00,88.1,70.9,29.93,SSE,164,9.0,17.0,57,0.00,,,0.00,668,Wunderground v.1.15,2013-08-23 20:55:00,
2013-08-23 16:01:00,87.8,70.1,29.93,SE,130,10.0,10.0,56,0.00,,,0.00,547,Wunderground v.1.15,2013-08-23 21:01:00,
2013-08-23 16:07:00,87.7,69.5,29.93,SSE,161,10.0,14.0,55,0.00,,,0.00,617,Wunderground v.1.15,2013-08-23 21:07:00,
2013-08-23 16:13:00,87.9,70.8,29.93,SSE,150,10.0,17.0,57,0.00,,,0.00,638,Wunderground v.1.15,2013-08-23 21:13:00,
2013-08-23 16:18:00,88.0,69.8,29.93,SSE,153,11.0,17.0,55,0.00,,,0.00,566,Wunderground v.1.15,2013-08-23 21:18:00,
2013-08-23 16:23:00,87.9,69.7,29.93,South,191,11.0,13.0,55,0.00,,,0.00,504,Wunderground v.1.15,2013-08-23 21:23:00,
2013-08-23 16:28:00,87.4,69.3,29.93,South,170,12.0,15.0,55,0.00,,,0.00,510,Wunderground v.1.15,2013-08-23 21:28:00,
2013-08-23 16:34:00,87.3,69.2,29.92,South,180,12.0,17.0,55,0.00,,,0.00,568,Wunderground v.1.15,2013-08-23 21:34:00,
2013-08-23 16:40:00,87.4,68.7,29.92,South,176,12.0,14.0,54,0.00,,,0.00,508,Wunderground v.1.15,2013-08-23 21:40:00,
2013-08-23 16:45:00,87.7,68.4,29.92,South,173,12.0,14.0,53,0.00,,,0.00,533,Wunderground v.1.15,2013-08-23 21:45:00,
2013-08-23 16:50:00,87.6,69.4,29.92,SSE,158,12.0,12.0,55,0.00,,,0.00,494,Wunderground v.1.15,2013-08-23 21:50:00,
2013-08-23 16:56:00,87.7,71.1,29.92,SSW,194,10.0,13.0,58,0.00,,,0.00,531,Wunderground v.1.15,2013-08-23 21:56:00,
2013-08-23 17:02:00,87.5,68.8,29.92,SSE,152,9.0,11.0,54,0.00,,,0.00,485,Wunderground v.1.15,2013-08-23 22:02:00,
2013-08-23 17:07:00,87.0,69.4,29.92,SSW,192,10.0,14.0,56,0.00,,,0.00,418,Wunderground v.1.15,2013-08-23 22:07:00,
2013-08-23 17:12:00,86.8,69.2,29.92,South,182,12.0,14.0,56,0.00,,,0.00,378,Wunderground v.1.15,2013-08-23 22:12:00,
2013-08-23 17:18:00,86.9,70.8,29.92,SSE,159,11.0,14.0,59,0.00,,,0.00,422,Wunderground v.1.15,2013-08-23 22:18:00,
2013-08-23 17:23:00,86.8,70.2,29.92,SSE,166,9.0,11.0,58,0.00,,,0.00,345,Wunderground v.1.15,2013-08-23 22:23:00,
2013-08-23 17:28:00,86.7,70.2,29.92,SSE,151,10.0,15.0,58,0.00,,,0.00,288,Wunderground v.1.15,2013-08-23 22:28:00,
2013-08-23 17:33:00,86.1,70.6,29.92,South,172,11.0,16.0,60,0.00,,,0.00,192,Wunderground v.1.15,2013-08-23 22:33:00,
2013-08-23 17:38:00,85.7,70.7,29.91,SE,146,11.0,16.0,61,0.00,,,0.00,160,Wunderground v.1.15,2013-08-23 22:38:00,
2013-08-23 17:44:00,85.3,70.3,29.92,South,187,10.0,11.0,61,0.00,,,0.00,155,Wunderground v.1.15,2013-08-23 22:44:00,
2013-08-23 17:50:00,84.9,70.9,29.92,SE,126,10.0,11.0,63,0.00,,,0.00,171,Wunderground v.1.15,2013-08-23 22:50:00,
2013-08-23 17:56:00,84.8,70.3,29.92,South,169,9.0,14.0,62,0.00,,,0.00,178,Wunderground v.1.15,2013-08-23 22:56:00,
2013-08-23 18:02:00,84.5,71.0,29.91,SE,142,9.0,9.0,64,0.00,,,0.00,153,Wunderground v.1.15,2013-08-23 23:02:00,
2013-08-23 18:07:00,84.4,70.9,29.91,SE,144,7.0,10.0,64,0.00,,,0.00,160,Wunderground v.1.15,2013-08-23 23:07:00,
2013-08-23 18:12:00,84.3,71.2,29.91,ESE,111,6.0,9.0,65,0.00,,,0.00,155,Wunderground v.1.15,2013-08-23 23:12:00,
2013-08-23 18:18:00,84.3,71.2,29.91,SE,133,8.0,9.0,65,0.00,,,0.00,260,Wunderground v.1.15,2013-08-23 23:18:00,
2013-08-23 18:24:00,84.5,71.4,29.91,ESE,117,8.0,9.0,65,0.00,,,0.00,271,Wunderground v.1.15,2013-08-23 23:24:00,
2013-08-23 18:30:00,84.7,71.6,29.91,SE,137,8.0,8.0,65,0.00,,,0.00,236,Wunderground v.1.15,2013-08-23 23:30:00,
2013-08-23 18:35:00,84.7,72.1,29.91,SE,136,8.0,12.0,66,0.00,,,0.00,265,Wunderground v.1.15,2013-08-23 23:35:00,
2013-08-23 18:41:00,84.5,71.9,29.91,SE,135,9.0,9.0,66,0.00,,,0.00,163,Wunderground v.1.15,2013-08-23 23:41:00,
2013-08-23 18:47:00,84.3,71.7,29.91,SSE,157,8.0,11.0,66,0.00,,,0.00,144,Wunderground v.1.15,2013-08-23 23:47:00,
2013-08-23 18:52:00,84.1,71.5,29.91,SE,127,8.0,10.0,66,0.00,,,0.00,123,Wunderground v.1.15,2013-08-23 23:52:00,
2013-08-23 18:57:00,83.9,71.3,29.91,SE,142,8.0,12.0,66,0.00,,,0.00,114,Wunderground v.1.15,2013-08-23 23:57:00,
2013-08-23 19:02:00,83.6,71.9,29.90,SE,146,8.0,9.0,68,0.00,,,0.00,100,Wunderground v.1.15,2013-08-24 00:02:00,
2013-08-23 19:07:00,83.4,71.7,29.90,SE,144,7.0,9.0,68,0.00,,,0.00,86,Wunderground v.1.15,2013-08-24 00:07:00,
2013-08-23 19:12:00,83.3,72.1,29.90,SE,133,8.0,10.0,69,0.00,,,0.00,79,Wunderground v.1.15,2013-08-24 00:12:00,
2013-08-23 19:18:00,83.0,72.2,29.90,SE,132,8.0,10.0,70,0.00,,,0.00,72,Wunderground v.1.15,2013-08-24 00:18:00,
2013-08-23 19:24:00,82.8,72.4,29.90,SE,134,8.0,10.0,71,0.00,,,0.00,53,Wunderground v.1.15,2013-08-24 00:24:00,
2013-08-23 19:30:00,82.5,72.1,29.89,ESE,112,8.0,10.0,71,0.00,,,0.00,40,Wunderground v.1.15,2013-08-24 00:30:00,
2013-08-23 19:36:00,82.1,72.2,29.90,ESE,117,8.0,10.0,72,0.00,,,0.00,30,Wunderground v.1.15,2013-08-24 00:36:00,
2013-08-23 19:42:00,81.9,72.0,29.90,ESE,117,7.0,8.0,72,0.00,,,0.00,25,Wunderground v.1.15,2013-08-24 00:42:00,
2013-08-23 19:47:00,81.6,72.1,29.90,SE,146,7.0,8.0,73,0.00,,,0.00,21,Wunderground v.1.15,2013-08-24 00:47:00,
2013-08-23 19:52:00,81.5,72.0,29.90,SE,130,7.0,8.0,73,0.00,,,0.00,16,Wunderground v.1.15,2013-08-24 00:52:00,
2013-08-23 19:57:00,81.3,71.8,29.90,SE,137,7.0,9.0,73,0.00,,,0.00,12,Wunderground v.1.15,2013-08-24 00:57:00,
2013-08-23 20:02:00,81.2,71.7,29.89,SE,137,7.0,9.0,73,0.00,,,0.00,9,Wunderground v.1.15,2013-08-24 01:02:00,
2013-08-23 20:08:00,81.0,71.9,29.89,SE,136,7.0,9.0,74,0.00,,,0.00,5,Wunderground v.1.15,2013-08-24 01:08:00,
2013-08-23 20:14:00,80.7,72.0,29.89,SE,136,7.0,11.0,75,0.00,,,0.00,5,Wunderground v.1.15,2013-08-24 01:14:00,
2013-08-23 20:20:00,80.7,71.6,29.89,SE,132,8.0,8.0,74,0.00,,,0.00,0,Wunderground v.1.15,2013-08-24 01:20:00,
2013-08-23 20:26:00,80.4,71.7,29.89,SE,140,9.0,10.0,75,0.00,,,0.00,0,Wunderground v.1.15,2013-08-24 01:26:00,
2013-08-23 20:32:00,80.2,71.6,29.89,SE,130,9.0,9.0,75,0.00,,,0.00,0,Wunderground v.1.15,2013-08-24 01:32:00,
2013-08-23 20:38:00,80.0,71.4,29.89,SE,130,9.0,11.0,75,0.00,,,0.00,0,Wunderground v.1.15,2013-08-24 01:38:00,
2013-08-23 20:43:00,79.7,71.1,29.90,SSE,147,9.0,9.0,75,0.00,,,0.00,0,Wunderground v.1.15,2013-08-24 01:43:00,
2013-08-23 20:49:00,79.6,71.4,29.90,ESE,121,8.0,11.0,76,0.00,,,0.00,0,Wunderground v.1.15,2013-08-24 01:49:00,
2013-08-23 20:54:00,79.4,71.2,29.90,SE,130,8.0,10.0,76,0.00,,,0.00,0,Wunderground v.1.15,2013-08-24 01:54:00,
2013-08-23 20:59:00,79.3,71.1,29.90,SE,133,8.0,10.0,76,0.00,,,0.00,0,Wunderground v.1.15,2013-08-24 01:59:00,
2013-08-23 21:05:00,79.1,70.9,29.90,SE,139,8.0,9.0,76,0.00,,,0.00,0,Wunderground v.1.15,2013-08-24 02:05:00,
2013-08-23 21:10:00,79.0,70.8,29.91,SE,125,8.0,8.0,76,0.00,,,0.00,0,Wunderground v.1.15,2013-08-24 02:10:00,
2013-08-23 21:15:00,78.9,71.1,29.91,SE,130,9.0,12.0,77,0.00,,,0.00,0,Wunderground v.1.15,2013-08-24 02:15:00,
2013-08-23 21:20:00,78.8,71.0,29.91,SSE,161,8.0,9.0,77,0.00,,,0.00,0,Wunderground v.1.15,2013-08-24 02:20:00,
2013-08-23 21:26:00,78.7,70.9,29.91,ESE,103,7.0,9.0,77,0.00,,,0.00,0,Wunderground v.1.15,2013-08-24 02:26:00,
2013-08-23 21:31:00,78.6,70.8,29.91,SSE,155,7.0,8.0,77,0.00,,,0.00,0,Wunderground v.1.15,2013-08-24 02:31:00,
2013-08-23 21:37:00,78.4,71.0,29.91,SE,132,6.0,8.0,78,0.00,,,0.00,0,Wunderground v.1.15,2013-08-24 02:37:00,
2013-08-23 21:42:00,78.2,70.8,29.92,SE,135,6.0,10.0,78,0.00,,,0.00,0,Wunderground v.1.15,2013-08-24 02:42:00,
2013-08-23 21:47:00,78.0,71.0,29.91,SE,144,6.0,10.0,79,0.00,,,0.00,0,Wunderground v.1.15,2013-08-24 02:47:00,
2013-08-23 21:52:00,77.8,70.8,29.92,ESE,123,6.0,9.0,79,0.00,,,0.00,0,Wunderground v.1.15,2013-08-24 02:52:00,
2013-08-23 21:58:00,77.6,70.9,29.91,SSE,153,7.0,10.0,80,0.00,,,0.00,0,Wunderground v.1.15,2013-08-24 02:58:00,
2013-08-23 22:04:00,77.6,70.9,29.92,ESE,119,6.0,7.0,80,0.00,,,0.00,0,Wunderground v.1.15,2013-08-24 03:04:00,
2013-08-23 22:09:00,77.6,70.9,29.92,SSE,147,6.0,8.0,80,0.00,,,0.00,0,Wunderground v.1.15,2013-08-24 03:09:00,
2013-08-23 22:15:00,77.4,71.1,29.92,SE,145,6.0,8.0,81,0.00,,,0.00,0,Wunderground v.1.15,2013-08-24 03:15:00,
2013-08-23 22:20:00,77.3,71.0,29.92,SE,142,6.0,6.0,81,0.00,,,0.00,0,Wunderground v.1.15,2013-08-24 03:20:00,
2013-08-23 22:26:00,77.2,71.3,29.92,SE,126,7.0,12.0,82,0.00,,,0.00,0,Wunderground v.1.15,2013-08-24 03:26:00,
2013-08-23 22:31:00,77.1,71.2,29.92,SE,130,7.0,10.0,82,0.00,,,0.00,0,Wunderground v.1.15,2013-08-24 03:31:00,
2013-08-23 22:37:00,77.0,71.1,29.92,SE,128,7.0,10.0,82,0.00,,,0.00,0,Wunderground v.1.15,2013-08-24 03:37:00,
2013-08-23 22:42:00,77.0,71.4,29.92,SSE,166,7.0,10.0,83,0.00,,,0.00,0,Wunderground v.1.15,2013-08-24 03:42:00,
2013-08-23 22:47:00,76.9,71.3,29.92,SE,138,8.0,10.0,83,0.00,,,0.00,0,Wunderground v.1.15,2013-08-24 03:47:00,
2013-08-23 22:52:00,76.9,71.3,29.92,SE,145,7.0,10.0,83,0.00,,,0.00,0,Wunderground v.1.15,2013-08-24 03:52:00,
2013-08-23 22:57:00,76.9,71.3,29.92,SE,137,7.0,10.0,83,0.00,,,0.00,0,Wunderground v.1.15,2013-08-24 03:57:00,
2013-08-23 23:01:00,76.9,71.3,29.92,SE,126,7.0,8.0,83,0.00,,,0.00,0,Wunderground v.1.15,2013-08-24 04:01:00,
2013-08-23 23:02:00,76.9,71.3,29.92,SSE,150,8.0,11.0,83,0.00,,,0.00,0,Wunderground v.1.15,2013-08-24 04:02:00,
2013-08-23 23:07:00,76.8,71.2,29.92,SSE,166,7.0,11.0,83,0.00,,,0.00,0,Wunderground v.1.15,2013-08-24 04:07:00,
2013-08-23 23:08:00,76.8,71.2,29.92,SSE,147,7.0,11.0,83,0.00,,,0.00,0,Wunderground v.1.15,2013-08-24 04:08:00,
2013-08-23 23:09:00,76.8,71.2,29.92,SE,138,7.0,11.0,83,0.00,,,0.00,0,Wunderground v.1.15,2013-08-24 04:09:00,
2013-08-23 23:14:00,76.8,71.2,29.92,SE,146,8.0,11.0,83,0.00,,,0.00,0,Wunderground v.1.15,2013-08-24 04:14:00,
2013-08-23 23:19:00,76.8,71.2,29.92,SSE,155,8.0,11.0,83,0.00,,,0.00,0,Wunderground v.1.15,2013-08-24 04:19:00,
2013-08-23 23:24:00,76.9,71.0,29.92,SE,142,7.0,9.0,82,0.00,,,0.00,0,Wunderground v.1.15,2013-08-24 04:24:00,
2013-08-23 23:29:00,76.9,71.0,29.92,SSE,159,7.0,10.0,82,0.00,,,0.00,0,Wunderground v.1.15,2013-08-24 04:29:00,
2013-08-23 23:35:00,76.9,71.0,29.92,SSE,150,7.0,8.0,82,0.00,,,0.00,0,Wunderground v.1.15,2013-08-24 04:35:00,
2013-08-23 23:40:00,77.0,70.7,29.92,SSW,192,6.0,8.0,81,0.00,,,0.00,0,Wunderground v.1.15,2013-08-24 04:40:00,
2013-08-23 23:46:00,77.0,70.7,29.93,SSE,157,7.0,11.0,81,0.00,,,0.00,0,Wunderground v.1.15,2013-08-24 04:46:00,
2013-08-23 23:51:00,76.9,70.6,29.93,SSE,150,6.0,7.0,81,0.00,,,0.00,0,Wunderground v.1.15,2013-08-24 04:51:00,
2013-08-23 23:57:00,76.8,70.5,29.93,SE,142,6.0,7.0,81,0.00,,,0.00,0,Wunderground v.1.15,2013-08-24 04:57:00,